User: anonymous
Location: Vancouver
(49.2500°N, 123.1330°W)
Time: 14:14:31
(UTC-07:00)
Language:

Iridium 21 - Orbit

View from above orbital plane
View from above orbital plane
View from above satellite
View from above satellite

Ground track
Ground track

The orbit data is extracted from the following two-line orbital elements,

1 25778U 99032B   14292.47420631  .00000336  00000-0  11284-3 0  9369
2 25778 086.3933 270.1082 0002350 096.9008 015.7152 14.34215582808838
Epoch (UTC): 19 October 2014 11:22:51
Eccentricity: 0.0002350
inclination: 86.3933°
perigee height: 776 km
apogee height: 779 km
right ascension of ascending node: 270.1082°
argument of perigee: 96.9008°
revolutions per day: 14.34215582
mean anomaly at epoch: 15.7152°
orbit number at epoch: 80883

The dashed part of the orbit path shows where the satellite is in the earth's shadow,  

DLR